FW4777 Weather Reports


Display with metric or nautical units.
time (UTC)temp
F
wind
direction
speed
MPH
gust
MPH
rain 1hr
in
rain 24hr
in
rain mn
in
humidity
%
barometer
mb
20200814205301 95 121 7.0 8.0 0.00 0.00 0.00 17 1023.7
20200814204255 95 149 7.0 9.0 0.00 0.00 0.00 17 1022.8
20200814203258 95 110 3.0 6.0 0.00 0.00 0.00 16 1022.0
20200814202248 96 137 4.0 8.0 0.00 0.00 0.00 17 1021.4
20200814201248 94 87 5.0 7.0 0.00 0.00 0.00 18 1021.4
20200814200255 95 339 5.0 7.0 0.00 0.00 0.00 19 1021.0
20200814195254 96 66 4.0 6.0 0.00 0.00 0.00 18 1020.5
20200814194303 95 73 4.0 6.0 0.00 0.00 0.00 19 1020.0
20200814193301 95 63 4.0 5.0 0.00 0.00 0.00 18 1019.4
20200814192255 94 315 5.0 9.0 0.00 0.00 0.00 17 1019.0
20200814191249 94 97 5.0 8.0 0.00 0.00 0.00 16 1019.0
20200814190258 93 93 7.0 8.0 0.00 0.00 0.00 17 1018.5
20200814185249 94 358 5.0 6.0 0.00 0.00 0.00 17 1018.0
20200814184248 92 61 8.0 11.0 0.00 0.00 0.00 18 1017.3
20200814183257 92 109 8.0 10.0 0.00 0.00 0.00 18 1017.0
20200814182248 91 97 9.0 11.0 0.00 0.00 0.00 18 1016.7
20200814181259 92 133 10.0 14.0 0.00 0.00 0.00 17 1016.5
20200814180253 92 123 7.0 11.0 0.00 0.00 0.00 17 1016.1
20200814175257 93 96 5.0 9.0 0.00 0.00 0.00 17 1015.5
20200814174247 94 68 7.0 9.0 0.00 0.00 0.00 16 1014.8
20200814173247 94 293 1.0 2.0 0.00 0.00 0.00 12 1014.2
20200814172257 94 112 2.0 3.0 0.00 0.00 0.00 12 1013.5
20200814171247 93 112 2.0 4.0 0.00 0.00 0.00 13 1013.5
20200814170256 93 220 3.0 4.0 0.00 0.00 0.00 12 1012.7
20200814165247 93 90 4.0 4.0 0.00 0.00 0.00 13 1012.3
20200814164256 92 177 1.0 3.0 0.00 0.00 0.00 13 1011.7
20200814163247 92 88 2.0 3.0 0.00 0.00 0.00 16 1011.1
20200814162246 90 103 3.0 3.0 0.00 0.00 0.00 19 1010.3
20200814161256 90 126 3.0 4.0 0.00 0.00 0.00 20 1010.3
20200814160247 88 96 3.0 4.0 0.00 0.00 0.00 20 1009.6
20200814155256 87 120 1.0 1.0 0.00 0.00 0.00 22 1009.0
20200814154255 85 0.0 0.0 0.00 0.00 0.00 22 1008.3
20200814153250 83 270 0.0 1.0 0.00 0.00 0.00 26 1007.8
20200814152259 81 0.0 1.0 0.00 0.00 0.00 27 1007.4
20200814151250 79 243 1.0 3.0 0.00 0.00 0.00 26 1007.4
20200814150249 77 239 2.0 2.0 0.00 0.00 0.00 30 1007.0
20200814145254 75 247 1.0 2.0 0.00 0.00 0.00 33 1006.6
20200814144302 73 255 1.0 2.0 0.00 0.00 0.00 34 1006.3
20200814143253 72 236 1.0 2.0 0.00 0.00 0.00 36 1006.0
20200814142302 73 105 2.0 3.0 0.00 0.00 0.00 34 1005.6
20200814141252 74 90 3.0 3.0 0.00 0.00 0.00 34 1005.6
20200814140251 72 0.0 0.0 0.00 0.00 0.00 35 1005.4
20200814135302 70 231 1.0 2.0 0.00 0.00 0.00 33 1005.0
20200814134253 68 0.0 0.0 0.00 0.00 0.00 36 1004.9
20200814133303 67 112 2.0 2.0 0.00 0.00 0.00 37 1004.6
20200814132253 66 280 1.0 3.0 0.00 0.00 0.00 33 1004.5
20200814131253 62 263 2.0 3.0 0.00 0.00 0.00 38 1004.4
20200814130302 60 245 3.0 4.0 0.00 0.00 0.00 41 1004.0
20200814125253 58 286 2.0 3.0 0.00 0.00 0.00 45 1003.7
20200814124258 58 308 1.0 1.0 0.00 0.00 0.00 43 1003.2
20200814123257 57 270 1.0 2.0 0.00 0.00 0.00 44 1002.6
20200814122248 58 247 1.0 1.0 0.00 0.00 0.00 43 1002.4
20200814121257 58 270 2.0 2.0 0.00 0.00 0.00 43 1002.3
20200814120248 59 270 2.0 2.0 0.00 0.00 0.00 41 1002.0
20200814115257 60 112 0.0 2.0 0.00 0.00 0.00 39 1001.7
20200814114248 61 247 1.0 1.0 0.00 0.00 0.00 36 1001.1
20200814113248 62 225 1.0 2.0 0.00 0.00 0.00 35
20200814112247 63 0.0 0.0 0.00 0.00 0.00 32
20200814111252 63 270 2.0 3.0 0.00 0.00 0.00 32
20200814110301 63 252 2.0 3.0 0.00 0.00 0.00 33
20200814105252 63 270 2.0 3.0 0.00 0.00 0.00 34
20200814104252 64 0.0 1.0 0.00 0.00 0.00 29
20200814103301 66 90 1.0 1.0 0.00 0.00 0.00 28
20200814102252 67 292 2.0 2.0 0.00 0.00 0.00 27
20200814101301 65 309 2.0 3.0 0.00 0.00 0.00 30
20200814100253 63 292 2.0 3.0 0.00 0.00 0.00 39 1001.1
20200814095306 63 257 2.0 3.0 0.00 0.00 0.00 39 1001.7
20200814094253 64 103 2.0 3.0 0.00 0.00 0.00 37 1002.5
20200814093253 64 247 2.0 2.0 0.00 0.00 0.00 37 1003.1
20200814092306 64 263 2.0 3.0 0.00 0.00 0.00 36 1004.0
20200814091254 63 285 3.0 3.0 0.00 0.00 0.00 41 1004.0
20200814090304 65 225 0.0 1.0 0.00 0.00 0.00 38 1004.6
20200814085255 0 0.0 0.0 0.00 0.00 0.00 1005.4
20200814084246 67 243 2.0 2.0 0.00 0.00 0.00 34 1006.0
20200814083257 68 282 2.0 2.0 0.00 0.00 0.00 34 1006.6
20200814082255 68 300 4.0 5.0 0.00 0.00 0.00 36 1007.4
20200814081246 69 292 4.0 4.0 0.00 0.00 0.00 37 1007.4
20200814080255 70 292 3.0 4.0 0.00 0.00 0.00 36 1008.0
20200814075247 68 270 2.0 2.0 0.00 0.00 0.00 36 1008.6
20200814074257 68 225 2.0 3.0 0.00 0.00 0.00 40 1009.1
20200814073249 68 1.0 2.0 0.00 0.00 0.00 41 1009.7
20200814072257 69 0.0 1.0 0.00 0.00 0.00 40 1010.0
20200814071249 69 270 1.0 2.0 0.00 0.00 0.00 39 1010.2
20200814070249 69 292 3.0 4.0 0.00 0.00 0.00 40 1010.9
20200814065258 68 285 2.0 3.0 0.00 0.00 0.00 40 1011.5
20200814064250 68 281 2.0 2.0 0.00 0.00 0.00 43 1012.3
20200814063300 68 0.0 0.0 0.00 0.00 0.00 42 1012.8
20200814062252 68 0.0 0.0 0.00 0.00 0.00 42 1013.5
20200814061300 68 262 2.0 2.0 0.00 0.00 0.00 42 1013.5
20200814060247 68 275 1.0 2.0 0.00 0.00 0.00 42 1014.5
20200814055258 68 247 1.0 2.0 0.00 0.00 0.00 42 1015.3
20200814054249 67 275 2.0 2.0 0.00 0.00 0.00 42 1016.4
20200814053247 67 0.0 0.0 0.00 0.00 0.00 42 1017.6
20200814052253 69 0.0 0.0 0.00 0.00 0.00 41 1018.6
20200814051256 69 281 1.0 2.0 0.00 0.00 0.00 41 1018.6
20200814050304 70 243 0.0 1.0 0.00 0.00 0.00 40 1019.8
20200814045250 70 285 2.0 3.0 0.00 0.00 0.00 40 1021.1
20200814044251 71 0.0 1.0 0.00 0.00 0.00 39 1022.6
20200814043259 72 0.0 0.0 0.00 0.00 0.00 38 1024.2
20200814042251 73 0.0 0.0 0.00 0.00 0.00 37 1026.3
20200814041257 74 270 1.0 2.0 0.00 0.00 0.00 35 1026.3
20200814040259 75 0.0 0.0 0.00 0.00 0.00 34 1028.7
20200814035250 76 0.0 0.0 0.00 0.00 0.00 32 1029.0
20200814034300 78 0.0 0.0 0.00 0.00 0.00 30 1028.9
20200814033253 78 270 2.0 3.0 0.00 0.00 0.00 29 1028.8
20200814032257 79 180 1.0 2.0 0.00 0.00 0.00 28 1028.5
20200814031247 79 217 2.0 3.0 0.00 0.00 0.00 28 1028.5
20200814030247 80 209 1.0 2.0 0.00 0.00 0.00 27 1028.3
20200814025253 80 195 1.0 2.0 0.00 0.00 0.00 27 1028.2
20200814024256 81 180 0.0 1.0 0.00 0.00 0.00 25 1027.9
20200814023246 82 181 1.0 2.0 0.00 0.00 0.00 25 1027.7
20200814022258 82 249 2.0 2.0 0.00 0.00 0.00 24 1027.5
20200814021253 83 159 2.0 3.0 0.00 0.00 0.00 24 1027.3
20200814020256 83 210 0.0 2.0 0.00 0.00 0.00 24 1027.0
20200814015247 84 0.0 0.0 0.00 0.00 0.00 23 1026.7
20200814014247 84 0.0 0.0 0.00 0.00 0.00 23 1026.3
20200814013253 85 0.0 0.0 0.00 0.00 0.00 22 1025.9
20200814012247 86 0.0 0.0 0.00 0.00 0.00 21 1025.3
20200814011251 87 0.0 0.0 0.00 0.00 0.00 21 1025.3
20200814010301 88 0.0 0.0 0.00 0.00 0.00 20 1024.7
20200814005255 89 0.0 0.0 0.00 0.00 0.00 19 1023.7
20200814004259 90 0.0 0.0 0.00 0.00 0.00 18 1023.0
20200814003249 90 96 2.0 3.0 0.00 0.00 0.00 17 1023.2
20200814002248 90 95 2.0 2.0 0.00 0.00 0.00 17 1023.9
20200814001253 91 77 3.0 5.0 0.00 0.00 0.00 16 1023.9
20200814000257 91 105 2.0 4.0 0.00 0.00 0.00 15 1024.7
20200813235248 92 110 3.0 4.0 0.00 0.00 0.00 16 1024.9
20200813234258 92 95 4.0 5.0 0.00 0.00 0.00 15 1025.3
20200813233252 93 95 2.0 3.0 0.00 0.00 0.00 14 1026.1
20200813232255 92 103 4.0 4.0 0.00 0.00 0.00 15 1027.3
20200813231246 94 103 3.0 3.0 0.00 0.00 0.00 14 1027.3
20200813230247 93 127 3.0 3.0 0.00 0.00 0.00 14 1028.8
20200813225253 94 94 3.0 6.0 0.00 0.00 0.00 14 1028.9
20200813224257 94 91 3.0 4.0 0.00 0.00 0.00 15 1027.9
20200813223247 94 90 5.0 7.0 0.00 0.00 0.00 14 1027.3
20200813222259 92 112 4.0 4.0 0.00 0.00 0.00 14 1026.9
20200813221253 93 81 7.0 9.0 0.00 0.00 0.00 14 1026.9
20200813220256 93 53 2.0 4.0 0.00 0.00 0.00 14 1026.4
20200813215247 94 96 5.0 6.0 0.00 0.00 0.00 14 1026.1
20200813214247 95 96 4.0 6.0 0.00 0.00 0.00 13 1025.6
20200813213253 93 112 4.0 4.0 0.00 0.00 0.00 14 1025.1
20200813212253 95 82 6.0 7.0 0.00 0.00 0.00 14 1024.7
20200813211300 96 96 6.0 8.0 0.00 0.00 0.00 13 1024.7
20200813210300 96 112 6.0 7.0 0.00 0.00 0.00 13 1023.9